Location: DaltonSkyGazer Observatory
(42.4858°N, 73.1565°W)
Time: 15:18:15
(UTC-05:00)

Daily predictions for brighter satellites

Satellite Brightness Start Highest point End
(mag) Time Altitude Azimuth Time Altitude Azimuth Time Altitude Azimuth
IRS-1A Rocket 4.4 17:47:55 10° SSE 17:53:42 87° ENE 17:59:38 10° NNW
Cosmos 2219 3.2 17:48:41 10° SSW 17:54:17 83° ESE 17:59:58 10° NNE
Ariane Rocket 4.1 17:53:51 10° S 17:58:48 51° W 18:03:48 10° NNW
Cosmos 2227 Rocket 2.8 17:53:50 10° S 17:58:55 36° ESE 18:04:01 10° NE
Cosmos 2237 Rocket 2.5 17:53:37 10° NNW 17:58:59 44° ENE 18:04:20 10° SE
SL-16 R/B 3.4 17:55:52 10° N 18:00:09 21° NE 18:04:24 10° E
SPOT 3 Rocket 3.7 17:56:16 10° SE 18:01:17 52° ENE 18:06:22 10° N
CZ-2C R/B 3.8 17:57:05 10° N 18:01:35 80° WNW 18:06:00 10° SSW
Cosmos 2123 Rocket 4.1 17:57:44 10° S 18:03:56 88° W 18:10:09 10° N
Cosmos 2112 Rocket 4.4 17:59:52 10° SSW 18:05:11 74° WNW 18:10:35 10° NNE
Cosmos 2056 Rocket 3.7 18:00:16 10° NNW 18:05:37 58° ENE 18:10:57 10° SE
NOAA 12 4.1 18:05:12 10° SSE 18:10:29 78° ENE 18:15:50 10° N
H-2A R/B 3.2 18:07:46 10° SE 18:11:28 41° ENE 18:15:10 10° N
USA 267 4.2 18:06:07 10° ENE 18:11:43 32° NNE 18:17:20 10° NW
Cosmos 1452 Rocket 4.4 18:07:24 10° N 18:11:53 27° ENE 18:16:19 10° ESE
Cosmos 2297 Rocket 2.6 18:08:09 10° S 18:13:23 40° ESE 18:18:38 10° NE
FENGYUN 3A 3.8 18:08:43 10° SSE 18:14:07 84° WSW 18:19:34 10° NNW
Cosmos 1674 Rocket 4.2 18:13:36 10° N 18:17:35 33° ENE 18:21:29 10° SE
CENTAUR R/B 3.6 18:13:26 10° SSE 18:17:51 22° ESE 18:22:34 10° ENE
Okean 1-7 4.4 18:18:01 10° NNW 18:22:13 44° W 18:26:23 10° SSW
MTI 3.9 18:19:18 10° N 18:22:29 75° WNW 18:25:39 10° SSW
YAOGAN 1 4.1 18:20:38 10° S 18:24:42 41° W 18:28:49 10° NNW
Cosmos 405 3.3 18:23:36 10° SSE 18:26:54 40° E 18:30:13 10° NNE
Cosmos 2333 Rocket 2.7 18:24:02 10° NNW 18:29:40 65° WSW 18:35:13 10° S
Cosmos 1812 3.1 18:27:14 10° N 18:30:55 40° ENE 18:34:35 10° SSE
NOSS 0 Rocket 4.1 18:24:49 10° NNW 18:31:01 78° WSW 18:37:13 10° SSE
Resurs 01 Rocket 3.1 18:32:25 17° ENE 18:32:50 17° ENE 18:35:44 10° NNE
Cosmos 1733 Rocket 2.9 18:29:17 10° S 18:33:34 69° E 18:37:52 10° NNE
Cosmos 1624 Rocket 4.2 18:30:08 10° NNW 18:35:22 75° WSW 18:40:33 10° SSE
Shenzhou-11 Module 3.2 18:33:27 10° W 18:36:15 36° SSW 18:38:21 15° SE
Cosmos 2082 3.7 18:33:22 10° S 18:38:51 59° ESE 18:44:24 10° NNE
NOSS 3-2 (A) 3.5 18:34:29 10° SW 18:40:24 82° NW 18:47:01 10° NE
Iridium 4 Rocket 3.7 18:36:37 10° NNE 18:41:22 39° E 18:45:42 10° SSE
Cosmos 44 Rocket 4.2 18:37:34 10° NNW 18:42:04 32° NE 18:44:17 23° E
Cosmos 158 Rocket 4.4 18:38:05 10° SSE 18:42:29 34° ESE 18:46:41 11° NE
ATLAS 3B R/B 3.5 18:35:55 10° SW 18:42:59 55° NW 18:49:48 10° NNE
Cosmos 921 Rocket 4.4 18:40:16 10° NNE 18:43:44 21° ENE 18:43:52 21° ENE
ERS-2 2.0 18:42:32 10° SSE 18:46:13 85° ENE 18:49:55 10° NNW
USA 186 4.2 18:48:24 11° NNE 18:48:24 11° NNE 18:48:40 10° NNE
Tiangong 2 1.0 18:44:52 10° W 18:48:03 80° SSW 18:49:09 38° ESE
Cosmos 2233 Rocket 4.5 18:43:40 10° NNW 18:49:54 64° W 18:56:03 10° S
Cosmos 1975 Rocket 4.4 18:46:45 10° NNE 18:49:27 22° NE 18:49:27 22° NE
Okean 3 3.4 18:46:49 10° N 18:50:58 61° E 18:55:05 10° SSE
DNEPR-1 R/B 3.4 18:46:46 10° SW 18:50:58 87° NW 18:54:48 13° NNE
FREGAT/IRIS 2.7 18:51:21 10° S 18:54:17 74° WSW 18:57:16 10° NNW
EO 1 Del DPAF 4.2 18:50:55 10° N 18:54:38 49° WNW 18:58:18 10° SSW
Thor Agena Rocket 3.6 18:50:03 10° NNE 18:55:00 49° E 18:59:53 10° S
Cosmos 1980 4.3 18:52:15 10° NNW 18:57:51 60° WSW 19:03:24 10° S
FengYun 1-2 T 4.4 18:53:36 10° S 18:59:07 75° WSW 19:04:38 10° NNW
Lacrosse 5 2.4 18:57:14 10° NW 19:02:12 57° SW 19:06:45 12° SSE
Cosmos 1464 Rocket 3.8 18:57:17 10° N 19:03:25 71° E 19:09:31 10° SSE
USA 32 4.1 18:59:57 10° SSE 19:05:01 53° E 19:10:05 10° NNE
Cosmos 1633 2.3 19:01:45 10° S 19:05:16 73° E 19:08:51 10° NNE
BREEZE-M R/B 3.4 19:03:19 10° NW 19:05:46 66° NNE 19:07:30 35° E
Cosmos 2084 Rocket 4.3 19:03:17 10° SW 19:07:33 49° NW 19:10:41 16° NNE
Sich 1 Rocket 3.7 19:04:06 10° S 19:08:30 52° E 19:12:52 10° NNE
Envisat 2.9 19:05:45 10° SSE 19:10:47 67° ENE 19:15:50 10° N
Aureole 3 4.4 19:04:44 10° SSW 19:11:08 75° W 19:16:11 10° N
CRYOSAT 2 4.3 19:06:44 10° NNE 19:11:34 56° E 19:16:19 10° S
Cosmos 1072 Rocket 4.4 19:06:57 10° N 19:13:10 89° WSW 19:19:26 10° S
SJ-6B 2.8 19:11:15 10° S 19:14:59 76° WSW 19:18:49 10° NNW
Cosmos 1378 Rocket 3.5 19:13:43 10° N 19:18:08 89° E 19:22:33 10° S
USA 215 3.3 19:15:54 19° NE 19:20:49 79° NW 19:27:21 10° WSW
SeaSat 1 2.8 19:20:50 11° SSE 19:25:30 65° WSW 19:30:26 10° NNW
Cosmos 44 3.3 19:21:34 10° NNW 19:26:36 88° NE 19:28:16 44° SE
Okean 1 3.4 19:23:32 10° N 19:27:01 64° NNE 19:27:01 64° NNE
ARGOS Delta rocket 3.8 19:25:16 10° N 19:30:17 87° W 19:34:58 10° SSW
NOSS 3-2 (C) 4.1 19:25:58 10° SW 19:31:50 53° NW 19:38:05 11° NNE
Cosmos 2034 Rocket 4.0 19:30:17 10° N 19:36:42 88° W 19:43:05 10° S
Cosmos 2237 Rocket 4.2 19:38:08 10° NW 19:42:47 27° WSW 19:47:26 10° SSW
Cosmos 2227 Rocket 3.7 19:37:48 10° WSW 19:42:56 35° WNW 19:48:07 10° N
CZ-4C R/B 3.9 19:38:07 10° NNW 19:43:53 27° NE 19:44:04 27° NE
SL-16 R/B 2.5 19:39:09 10° NNW 19:44:47 66° WSW 19:47:38 29° S
SL-8 R/B 3.9 19:44:23 10° WSW 19:48:30 66° SW 19:48:30 66° SW
USA 267 3.1 19:53:08 62° E 19:54:05 72° NE 20:00:36 10° NW
Cosmos 1816 Rocket 4.4 19:50:16 10° S 19:56:37 87° E 20:03:02 10° N
Cosmos 2297 Rocket 3.9 19:52:30 10° WSW 19:57:29 31° NW 20:02:32 10° N
Spot 2 Rocket 3.7 20:01:54 64° NW 20:01:54 64° NW 20:06:14 10° NNW
Cosmos 1603 4.4 19:57:13 10° NNW 20:01:12 43° N 20:01:12 43° N
Cosmos 1048 Rocket 4.4 19:58:36 10° SSW 20:03:54 64° WNW 20:04:54 53° NNW
CENTAUR R/B 2.7 20:01:37 10° SW 20:07:39 69° NW 20:09:52 43° NNE
Resurs 01 Rocket 2.9 20:09:59 39° WNW 20:09:59 39° WNW 20:13:13 10° NNW
Meteor 1-19 Rocket 4.4 20:05:49 10° NNW 20:10:49 67° WNW 20:10:49 67° WNW
USA 215 4.5 21:03:15 34° NNW 21:03:16 34° NNW 21:08:59 10° W
CZ-4C R/B 4.3 21:26:07 10° NW 21:29:17 30° NW 21:29:17 30° NW
